Regional Weather Roundup
Issued by NWS

Home | Current Version | Previous Version | Graphics & Text | Print | Product List | Glossary Off
Versions: 1 2 3 4 5 6 7 8 9 10 11 12 13 14 15 16 17 18 19 20 21 22 23 24 25 26 27 28 29 30 31 32 33 34 35 36 37 38 39 40 41 42 43 44 45 46 47 48 49 50

000
ASUS43 KMKX 210500
RWRWI

WISCONSIN REGIONAL WEATHER ROUNDUP
NATIONAL WEATHER SERVICE MILWAUKEE/SULLIVAN WI
1200 AM CDT SUN SEP 21 2014

NOTE: "FAIR" INDICATES FEW OR NO CLOUDS BELOW 12,000 FEET WITH NO
SIGNIFICANT WEATHER AND/OR OBSTRUCTIONS TO VISIBILITY.

WIZ001-002-006>008-014>016-023>028-210600-
NORTHWEST WISCONSIN

CITY           SKY/WX    TMP DP  RH WIND       PRES   REMARKS
SUPERIOR ARPT  RAIN      55  54  97 W3        29.72R
ASHLAND        CLOUDY    54  52  93 W5        29.70S
HAYWARD        LGT RAIN  54  53  97 W5        29.71F
SIREN          DRIZZLE   53  48  83 NW10G17   29.77R
RICE LAKE      CLOUDY    55  51  87 W9        29.76F
LADYSMITH      CLOUDY    56  54  92 W10       29.74F
EAU CLAIRE     NOT AVBL
MENOMONIE      MOCLDY    57  52  82 W12       29.79F
NEW RICHMOND   CLEAR     54  51  87 W12       29.80F
OSCEOLA        CLEAR     55  51  85 W12       29.83S
$$

WIZ003>005-009-010-017-018-210600-
NORTH CENTRAL WISCONSIN

CITY           SKY/WX    TMP DP  RH WIND       PRES   REMARKS
WOODRUFF       RAIN      55  52  90 W3        29.70F
RHINELANDER    CLOUDY    52  51  97 N5        29.69F
EAGLE RIVER    LGT RAIN  54  52  94 W6        29.70R
LAND O LAKES   CLOUDY    54  53  97 SW3       29.70S
PHILLIPS       CLOUDY    52  52  99 CALM      29.70F
TOMAHAWK       CLOUDY    51  50  95 CALM      29.71F
MEDFORD        CLOUDY    54  53  97 W5        29.72F
MERRILL        CLOUDY    53  53 100 W5        29.71F
$$

WIZ029-030-035-036-043>047-210600-
CENTRAL WISCONSIN

CITY           SKY/WX    TMP DP  RH WIND       PRES   REMARKS
WAUSAU         PTCLDY    54  53  97 W6        29.70F
MOSINEE        PTCLDY    52  52 100 W6        29.74S
MARSHFIELD     MOCLDY    57  54  89 W12       29.73F
STEVENS POINT  PTCLDY    54  53  97 W3        29.73F
WAUPACA        PTCLDY    59  57  94 W5        29.71S
WAUTOMA        NOT AVBL
WISC RAPIDS    MOCLDY    57  54  89 W12       29.75F
CAMP DOUGLAS   MOCLDY    59  59 100 W13G20    29.78R
$$

WIZ011>013-019>022-031-037>040-048>050-210600-
NORTHEAST WISCONSIN

CITY           SKY/WX    TMP DP  RH WIND       PRES   REMARKS
ANTIGO         CLOUDY    53  52  95 NW7       29.70F
STURGEON BAY   CLOUDY    57  55  94 E9        29.65F
GREEN BAY      HVY RAIN  59  57  93 W17G26    29.69R FOG
MANITOWOC      LGT RAIN  64  59  82 NW21G35   29.66S
APPLETON       TSTM      57  55  94 NE6       29.69S
CLINTONVILLE   CLOUDY    57  55  94 NW10G18   29.69F
OSHKOSH        CLOUDY    59  58  96 W3        29.69F
$$

WIZ032>034-041-042-053>061-210600-
SOUTHWEST WISCONSIN

CITY           SKY/WX    TMP DP  RH WIND       PRES   REMARKS
LA CROSSE      CLEAR     60  53  77 NW10      29.82R
SPARTA           N/A     58  52  80 W9G16     29.82R
VIROQUA        MOCLDY    57  57  98 NW13G18   29.83R
BOSCOBEL       MOCLDY    62  56  80 NW14G25   29.82R
PRAIRIE DU CHI MOCLDY    58  57  96 NW10G17   29.85R
PLATTEVILLE    FAIR      61  60  96 W12       29.83R
$$

WIZ056-057-062-063-064-067-068-210600-
SOUTH CENTRAL WISCONSIN

CITY           SKY/WX    TMP DP  RH WIND       PRES   REMARKS
BARABOO/DELLS  MOCLDY    59  56  88 W13G18    29.75R
LONE ROCK      NOT AVBL
WATERTOWN      CLOUDY    62  61  98 W3        29.70F
MADISON        CLOUDY    62  59  90 VRB6      29.73R
MIDDLETON      FAIR      62  61  97 W13       29.75R
MONROE         CLOUDY    61  61 100 W12       29.75F
JANESVILLE     CLOUDY    63  61  94 W3        29.73S
$$

WIZ051-052-058>065-066-070>072-210600-
SOUTHEAST WISCONSIN

CITY           SKY/WX    TMP DP  RH WIND       PRES   REMARKS
MILWAUKEE      TSTM      64  60  87 W17       29.72R VSB 3/4
WAUKESHA       LGT RAIN  59  57  94 W14G38    29.74R
MILWAUKEE/TIMM RAIN      66  61  82 W29G39    29.73R
RACINE         MOCLDY    68  64  87 W9        29.70F
BURLINGTON     LGT RAIN  64  63  94 NW20G30   29.73R
KENOSHA        MOCLDY    68  65  90 SW12      29.69F THUNDER
FOND DU LAC    CLOUDY    60  56  86 NW7       29.70F
SHEBOYGAN      TSTM      61  57  87 W23G43    29.71R
WEST BEND      RAIN      61  55  82 W12G35    29.71R
JUNEAU         CLOUDY    60  58  95 W3        29.72F
$$

LSZ147-162-210600-
LAKE SUPERIOR

STATION/POSITION TIME  TEMP    WIND        PRES    WAVE
                       AIR SEA DIR/SP/G            HT/PER
                 (UTC) (F)     (DEG/KT/KT) (MB)    (FT/S)
W MID LAKE BUOY  0350   49 46   70/ 12/ 12 1005.6R   1/ 4
DEVILS ISLAND    0400   55     360/  8/  9 1005.6R
PORT WING        0400   55     290/  4/  6 1006.4R
SAXON HARBOR     0400   57     210/  9/ 12 1005.4S
$$

LMZ867-665-643>646-210600-
LAKE MICHIGAN

STATION/POSITION TIME  TEMP    WIND        PRES    WAVE
                       AIR SEA DIR/SP/G            HT/PER
                 (UTC) (F)     (DEG/KT/KT) (MB)    (FT/S)
N MID LAKE BUOY  0350   58 58   30/ 14/ 17 1004.4F   3/ 6
NORTHPORT PIER   0400   59     290/  6/ 12 1005.4R
SISTER BAY       0412          290/  6/  8   N/A
ALGOMA LAKESHORE 0254             CALM       N/A
KEWAUNEE LAKESHO 0400   64     280/  2/  4 1003.2F
SHEBOYGAN LAKESH 0400   66 52  240/  8/  9 1004.8F
PORT WASHINGTON  0440   67     270/ 22     1006.1F
ATWATER BUOY     0400   66     220/  8/ 10 1006.6F
MILWAUKEE LAKESH 0400   69     220/  8/ 10   N/A
S MID LAKE BUOY  0350   67 63  280/ 10/ 17 1006.6F   1/ 3
KENOSHA   LAKESH 0400   69     220/  8/ 13 1005.8F
$$

TC  - TEMPERATURE IN CELSIUS
VSB - VISIBILITY IN STATUTE MILES
WCI - WIND CHILL INDEX
HX  - HEAT INDEX



USA.gov is the U.S. government's official web portal to all federal, state and local government web resources and services.